Wind_Speed
17 17 15 15 14 13 12 13 13 13 12 11 10 11 12 14 15 15 15 16 16 15 15 15 14 12 10 8 7 6 8 9 11 12 14 15 15 16 16 16 15 15 14 13
20 18 18 17 15 14 13 13 14 14 13 12 11 12 13 14 15 15 15 15 15 14 14 14 13 11 8 7 5 4 5 8 11 12 13 13 14 15 15 15 16 15 14 13
22 21 20 18 17 15 14 14 14 14 13 13 12 12 13 14 14 14 14 14 14 13 13 12 11 9 8 6 4 3 4 7 10 11 12 13 13 14 14 14 14 15 14 13
25 23 21 20 19 17 16 16 15 14 13 13 11 10 13 13 13 12 13 13 12 12 11 10 9 8 7 5 3 2 3 6 8 10 11 12 12 13 14 14 14 14 14 13
25 24 23 21 20 19 18 17 15 14 13 12 12 10 11 12 11 11 11 11 12 11 9 8 7 8 6 5 3 2 2 5 7 9 11 12 12 13 13 13 13 14 14 13
27 25 24 22 21 20 18 17 15 14 13 13 12 11 10 10 10 9 9 9 10 9 8 7 6 7 5 3 2 2 2 3 5 8 9 10 12 12 12 13 14 14 14 14
26 25 24 23 22 20 18 16 14 13 13 13 13 11 10 10 9 9 9 9 9 7 6 5 4 5 3 1 1 2 3 3 5 6 7 9 11 12 12 13 13 13 14 14
25 25 24 23 22 20 18 17 15 13 11 12 13 11 10 9 9 9 9 9 8 6 4 4 4 3 3 2 1 2 2 3 4 5 6 7 9 11 12 13 13 14 14 14
25 25 24 23 22 22 20 18 16 16 14 11 12 11 9 9 9 9 8 6 5 5 5 4 4 4 3 2 2 3 3 3 4 5 6 7 9 10 12 13 13 14 15 15
25 25 24 24 23 22 21 19 19 16 14 11 11 10 9 9 8 8 7 6 5 5 5 5 4 4 4 3 3 3 4 5 5 6 7 8 9 11 13 13 14 15 16 16
23 23 24 23 23 21 21 20 19 17 16 11 10 11 11 9 8 7 6 6 6 6 5 5 5 4 4 4 4 4 5 6 7 7 8 9 10 11 12 14 15 16 16 17
23 23 23 22 22 21 20 20 19 17 15 13 10 12 12 10 10 8 7 7 6 6 5 5 5 5 5 5 5 5 6 7 8 9 9 9 11 12 12 13 15 16 17 18
24 23 22 21 22 21 20 19 19 18 17 14 12 13 13 11 10 10 9 8 8 8 7 7 6 6 6 7 7 7 8 8 9 9 10 10 11 12 13 15 16 17 18 18
26 25 22 19 18 19 20 19 18 17 16 15 14 14 14 13 12 11 10 10 10 10 9 9 8 8 8 8 8 8 8 9 10 11 11 11 12 13 14 15 15 17 19 19
28 27 25 23 22 21 20 20 19 19 18 16 16 16 16 15 14 14 13 12 12 12 11 10 10 9 9 10 10 10 11 11 11 12 12 12 12 13 14 15 16 17 18 20
30 29 27 26 25 24 23 23 21 21 20 19 18 18 17 17 16 16 15 15 15 14 13 13 11 10 11 11 11 11 12 12 12 12 13 13 13 13 14 15 16 18 18 20
32 30 28 26 26 26 27 26 24 23 22 21 20 20 19 18 18 18 18 17 16 16 15 14 14 13 13 13 13 13 13 13 12 13 14 14 14 15 16 16 17 18 19 20
33 32 30 27 28 27 27 27 25 25 24 23 23 21 20 20 20 21 20 19 18 18 17 17 16 16 16 16 16 16 15 15 14 14 15 15 16 16 17 18 18 18 19 20
35 34 32 30 29 29 31 29 27 26 26 25 24 23 22 22 22 23 22 22 21 21 20 19 19 18 19 18 18 18 18 17 17 17 17 18 17 17 18 18 19 18 19 19
35 35 34 33 30 28 31 29 27 27 28 26 25 25 24 24 24 24 23 23 23 23 23 22 21 21 20 20 20 19 19 19 19 20 20 20 20 20 20 20 20 20 20 20
36 36 36 34 32 32 33 30 28 29 29 27 27 26 25 25 25 24 24 25 25 25 25 24 23 23 22 21 21 21 21 21 21 21 21 21 21 21 22 22 22 23 22 22
36 35 36 35 33 34 34 32 32 31 30 28 28 27 27 26 26 26 26 26 26 26 26 26 25 25 24 24 24 24 24 23 23 23 22 22 23 23 23 24 24 25 25 25
35 35 35 36 36 35 33 32 31 31 31 29 29 28 28 28 27 27 27 27 27 27 27 26 27 27 27 26 26 26 26 26 25 25 24 23 24 24 25 25 25 25 25 25
33 34 34 35 35 34 32 31 31 31 31 30 29 28 27 27 27 27 28 27 26 26 27 27 28 28 28 28 28 27 26 26 26 26 25 25 25 26 26 26 25 25 26 27
32 32 33 33 33 32 32 31 31 30 30 30 29 29 29 29 28 27 26 26 26 26 26 27 28 28 28 28 28 27 27 26 26 26 27 26 26 27 26 26 26 26 27 27
30 31 32 33 31 31 31 30 30 29 29 29 29 29 29 28 27 26 26 26 26 26 26 27 26 27 27 27 27 26 26 27 26 26 27 27 28 26 26 26 26 26 27 27
Wind_Direction
254 257 259 260 263 267 271 273 276 283 290 294 297 300 304 305 306 308 309 312 315 318 320 321 325 325 317 308 293 281 250 231 214 211 211 211 213 212 211 210 211 212 213 208
251 253 255 259 263 267 269 271 275 281 287 292 294 297 302 306 305 304 307 310 312 314 315 320 323 326 319 315 303 285 241 218 209 206 206 208 214 214 213 211 212 210 209 207
250 251 254 257 260 263 265 267 270 276 286 290 295 299 301 304 303 304 305 309 310 310 312 315 319 322 324 317 298 288 241 215 208 207 210 212 212 210 212 210 209 209 207 207
249 252 253 255 257 258 261 264 269 275 279 283 292 291 299 304 303 303 304 309 312 310 313 315 324 325 323 322 309 293 246 223 213 212 211 211 209 207 207 207 207 206 206 205
249 250 252 253 253 254 256 262 267 273 277 281 288 291 294 302 302 301 304 309 317 312 311 316 323 325 322 320 307 284 240 224 218 213 209 211 210 210 209 211 211 209 208 210
249 251 251 251 251 253 256 260 265 270 274 275 279 286 291 292 291 297 304 309 318 314 308 311 321 328 315 296 275 235 219 219 210 205 207 210 209 211 211 211 212 213 216 217
249 249 249 248 249 250 251 253 259 266 269 270 273 279 278 276 280 289 300 307 318 315 309 315 321 334 331 280 249 231 213 213 207 205 205 205 207 210 212 214 216 218 220 220
244 246 246 246 245 246 245 243 243 246 257 266 275 275 274 272 276 284 291 302 311 308 301 313 314 310 314 312 258 241 230 222 215 214 216 217 214 218 221 222 221 222 223 223
241 243 244 243 241 241 241 240 241 245 249 251 264 272 270 269 273 280 287 298 306 298 296 300 304 286 281 289 270 247 243 234 230 230 230 230 230 228 224 225 226 224 222 224
236 240 242 242 242 240 240 239 239 240 244 249 263 270 265 266 274 274 273 280 290 301 297 293 304 295 275 271 275 264 245 237 234 237 241 241 238 235 232 230 229 228 226 228
233 235 240 241 242 242 240 239 239 238 237 236 252 263 259 261 265 263 261 268 274 293 295 292 293 293 286 284 280 268 256 247 242 242 246 250 247 243 239 237 234 233 232 233
230 231 235 239 241 240 239 237 237 237 242 236 233 255 259 258 257 256 257 264 268 276 282 291 289 293 290 290 285 278 267 253 250 251 254 256 253 248 246 245 241 238 236 237
227 229 231 236 238 239 239 239 237 235 237 237 235 252 258 255 251 253 259 262 264 268 271 277 285 288 294 297 291 279 273 265 260 258 258 258 256 253 253 250 247 243 242 243
226 227 225 228 239 240 238 238 236 234 235 241 237 241 252 252 251 253 258 260 262 266 267 269 277 282 286 287 286 284 277 273 269 264 260 260 257 256 257 254 251 249 246 248
226 227 226 223 226 231 234 234 235 234 231 236 243 245 248 252 254 255 258 259 261 263 265 268 272 273 277 281 280 279 279 281 277 269 263 263 261 258 258 257 256 254 252 251
225 226 227 229 230 232 233 233 236 238 237 238 241 246 249 253 255 257 258 258 260 261 265 267 265 267 272 275 277 277 278 279 277 270 264 264 265 263 262 263 261 258 256 255
226 227 227 231 232 233 235 235 237 240 242 244 245 249 252 253 255 257 258 259 258 259 261 263 262 264 267 271 274 276 275 277 276 270 264 265 268 267 264 265 265 262 259 259
226 226 227 229 232 231 236 235 236 239 242 244 246 250 252 253 256 257 256 257 257 256 258 260 262 263 265 267 268 271 272 273 274 272 268 268 268 268 268 266 266 266 264 263
226 227 228 229 233 235 238 236 236 240 243 245 247 250 252 255 258 257 255 254 255 256 259 260 260 263 263 264 266 268 269 268 270 272 271 270 269 269 268 269 270 268 266 265
228 228 230 232 231 235 242 239 238 242 244 245 248 251 253 255 256 257 254 252 253 255 256 258 259 261 264 264 264 265 266 267 268 271 271 271 269 268 268 268 270 270 270 267
228 229 230 234 235 236 240 241 240 244 246 245 246 249 252 254 255 256 255 253 253 254 254 256 258 258 260 262 262 263 265 266 267 268 271 271 270 268 267 267 268 269 270 270
227 230 231 233 235 239 242 243 243 245 246 246 247 249 251 253 254 254 255 255 253 253 253 254 256 256 256 259 262 261 263 265 265 267 270 271 269 269 269 268 269 269 270 272
225 227 230 232 235 239 243 245 245 246 246 247 248 248 250 252 254 255 254 254 252 252 252 253 253 254 256 259 262 262 264 265 265 266 268 270 270 269 270 272 273 272 271 273
226 227 229 232 235 239 241 243 244 245 245 246 247 248 250 251 254 255 253 252 251 250 251 252 252 253 256 259 261 262 264 264 265 265 267 269 271 271 272 273 274 273 274 275
225 226 228 231 234 236 239 241 243 244 245 245 246 248 251 251 253 255 254 253 250 249 252 253 254 255 255 257 259 260 262 263 265 267 268 268 269 270 269 271 272 273 274 273
224 225 227 230 232 235 237 240 242 243 244 244 246 248 250 251 251 252 252 251 250 249 251 254 256 256 256 256 259 261 263 266 267 267 268 267 267 267 269 270 269 270 272 272
Height
5877 5879 5879 5880 5881 5882 5882 5882 5882 5882 5882 5882 5882 5882 5881 5879 5878 5876 5874 5871 5869 5867 5864 5861 5858 5855 5853 5852 5851 5852 5853 5854 5856 5858 5860 5862 5865 5867 5869 5871 5874 5876 5878 5880
5873 5874 5875 5876 5877 5878 5879 5879 5879 5879 5879 5879 5879 5879 5878 5876 5875 5873 5871 5869 5867 5864 5862 5859 5857 5854 5852 5852 5851 5851 5851 5852 5855 5857 5859 5861 5862 5865 5867 5869 5872 5874 5876 5878
5868 5870 5870 5872 5873 5874 5875 5876 5876 5876 5876 5876 5877 5877 5876 5874 5872 5870 5868 5866 5864 5862 5860 5857 5855 5853 5852 5851 5850 5851 5851 5852 5853 5855 5857 5859 5861 5863 5865 5868 5870 5872 5874 5876
5862 5864 5866 5867 5869 5870 5871 5872 5872 5873 5874 5875 5875 5876 5874 5871 5869 5868 5866 5863 5861 5859 5857 5855 5853 5852 5851 5849 5849 5850 5850 5851 5852 5854 5856 5858 5859 5861 5864 5866 5868 5870 5872 5874
5857 5859 5861 5863 5865 5866 5867 5868 5869 5870 5871 5871 5872 5872 5873 5869 5867 5865 5863 5861 5859 5857 5856 5854 5852 5851 5850 5849 5849 5849 5849 5850 5851 5852 5854 5856 5858 5860 5862 5864 5867 5869 5871 5873
5852 5854 5856 5858 5860 5861 5863 5865 5866 5866 5868 5869 5869 5869 5869 5867 5864 5862 5861 5859 5857 5855 5854 5853 5851 5850 5848 5848 5848 5849 5849 5850 5850 5851 5853 5854 5856 5858 5860 5863 5865 5867 5869 5871
5846 5848 5850 5853 5855 5857 5859 5862 5864 5865 5866 5867 5865 5865 5866 5863 5862 5860 5859 5857 5856 5854 5853 5851 5850 5849 5848 5848 5848 5849 5850 5850 5851 5851 5852 5853 5855 5857 5859 5861 5863 5865 5867 5869
5841 5843 5845 5848 5850 5852 5855 5858 5861 5864 5865 5865 5862 5862 5863 5861 5859 5858 5857 5856 5854 5853 5852 5851 5850 5849 5848 5848 5848 5849 5849 5850 5850 5851 5852 5853 5854 5856 5857 5859 5861 5863 5864 5866
5836 5838 5840 5842 5845 5848 5850 5852 5856 5858 5859 5861 5861 5859 5859 5858 5857 5856 5855 5854 5853 5852 5851 5850 5849 5848 5848 5848 5848 5848 5849 5849 5850 5851 5851 5852 5853 5855 5856 5857 5859 5860 5862 5864
5830 5833 5835 5837 5840 5842 5846 5848 5850 5853 5855 5858 5859 5857 5857 5855 5855 5854 5853 5853 5852 5851 5850 5849 5848 5848 5847 5847 5847 5847 5848 5848 5849 5849 5850 5851 5852 5853 5854 5855 5856 5858 5859 5861
5825 5829 5831 5833 5835 5838 5841 5844 5846 5849 5852 5855 5857 5858 5854 5853 5852 5852 5851 5851 5850 5850 5849 5848 5847 5847 5846 5846 5846 5846 5846 5847 5847 5848 5849 5850 5850 5851 5852 5852 5854 5855 5856 5858
5820 5824 5826 5829 5831 5833 5836 5839 5842 5845 5847 5849 5853 5856 5850 5850 5849 5849 5849 5849 5849 5848 5848 5847 5847 5846 5846 5845 5845 5845 5845 5845 5846 5846 5847 5847 5848 5848 5849 5849 5850 5851 5853 5854
5815 5819 5822 5825 5828 5830 5832 5834 5837 5840 5843 5845 5849 5852 5847 5847 5846 5847 5847 5847 5847 5846 5846 5846 5846 5845 5845 5844 5844 5844 5844 5844 5844 5844 5845 5845 5845 5845 5846 5847 5847 5848 5849 5850
5810 5814 5819 5824 5825 5826 5827 5830 5832 5836 5839 5842 5844 5845 5843 5843 5844 5844 5844 5844 5844 5844 5844 5844 5844 5844 5843 5843 5843 5842 5842 5842 5842 5842 5842 5842 5843 5843 5843 5843 5844 5844 5845 5846
5804 5808 5812 5816 5819 5821 5823 5826 5828 5831 5834 5838 5839 5839 5840 5840 5840 5840 5841 5841 5841 5841 5841 5841 5841 5841 5841 5841 5841 5840 5840 5840 5839 5839 5839 5839 5839 5840 5840 5840 5840 5840 5841 5842
5798 5802 5806 5810 5813 5815 5818 5821 5823 5826 5828 5831 5833 5834 5834 5835 5836 5836 5837 5837 5837 5838 5838 5838 5838 5838 5838 5838 5838 5838 5837 5837 5837 5836 5836 5837 5837 5837 5837 5837 5837 5837 5837 5837
5791 5796 5801 5805 5807 5809 5812 5815 5818 5820 5823 5825 5828 5829 5829 5830 5831 5831 5832 5832 5833 5833 5834 5834 5835 5835 5835 5835 5835 5835 5834 5834 5834 5833 5833 5833 5834 5833 5833 5833 5833 5833 5832 5832
5784 5789 5794 5798 5801 5804 5808 5809 5812 5814 5816 5819 5820 5822 5823 5824 5825 5825 5826 5827 5828 5828 5829 5830 5830 5831 5831 5831 5831 5831 5831 5830 5830 5830 5830 5830 5830 5829 5829 5829 5828 5828 5828 5827
5777 5782 5786 5791 5794 5797 5799 5802 5805 5808 5810 5812 5814 5815 5817 5818 5818 5819 5820 5821 5822 5823 5824 5824 5825 5826 5826 5826 5826 5826 5826 5826 5826 5826 5825 5825 5825 5825 5825 5824 5824 5823 5823 5822
5769 5774 5779 5782 5787 5790 5792 5795 5798 5802 5803 5805 5807 5808 5810 5811 5812 5813 5813 5814 5816 5817 5818 5818 5819 5820 5820 5821 5821 5821 5821 5821 5821 5821 5820 5820 5820 5820 5819 5819 5819 5819 5818 5818
5760 5765 5769 5773 5778 5782 5783 5787 5791 5795 5796 5798 5799 5801 5802 5803 5805 5806 5806 5807 5809 5810 5811 5812 5813 5814 5814 5815 5815 5815 5815 5815 5816 5815 5815 5815 5814 5814 5814 5814 5813 5813 5813 5812
5753 5757 5761 5765 5770 5774 5775 5779 5783 5785 5787 5789 5791 5793 5794 5796 5797 5798 5799 5800 5801 5803 5804 5805 5806 5807 5808 5808 5809 5809 5809 5810 5810 5809 5809 5809 5808 5808 5808 5808 5807 5807 5806 5806
5743 5749 5752 5757 5761 5763 5767 5770 5773 5776 5778 5780 5783 5785 5787 5788 5789 5791 5792 5793 5794 5795 5796 5798 5799 5800 5800 5801 5802 5802 5802 5803 5803 5803 5803 5802 5802 5802 5801 5801 5800 5800 5799 5799
5735 5740 5744 5748 5751 5755 5758 5761 5764 5767 5770 5772 5774 5777 5778 5780 5781 5783 5784 5785 5786 5788 5789 5790 5791 5792 5793 5794 5794 5795 5795 5795 5795 5796 5796 5796 5795 5795 5794 5794 5794 5793 5792 5792
5727 5732 5736 5739 5743 5747 5750 5753 5756 5759 5762 5764 5766 5768 5770 5772 5774 5775 5776 5777 5778 5780 5781 5783 5784 5785 5785 5786 5787 5787 5788 5788 5788 5788 5788 5788 5788 5788 5787 5787 5787 5786 5786 5785
5719 5724 5728 5731 5735 5739 5743 5745 5748 5751 5754 5756 5758 5760 5762 5764 5766 5767 5768 5770 5771 5773 5774 5775 5776 5777 5778 5779 5779 5780 5781 5781 5781 5781 5781 5781 5780 5780 5780 5780 5780 5779 5779 5778